Location: Camp Roosevelt
(41.7914°N, 81.1673°W)
Time: 09:39:30
(UTC+00:00)

COSMO-SKYMED 1 - Pass Details

Date: 29 October 2020
Orbit: 621 x 623 km, 97.9° (Epoch: 26 November)

Event Time Altitude Azimuth Distance (km) Brightness Sun altitude
Rises 23:31:55 0° 12° (NNE) 2,911 5.8 -13.5°
Reaches altitude 10° 23:34:07 10° 13° (NNE) 2,000 5.0 -13.9°
Maximum altitude 23:38:28 89° 103° (ESE) 628 2.5 -14.7°
Drops below altitude 10° 23:42:48 10° 194° (SSW) 1,984 5.4 -15.5°
Sets 23:44:58 0° 194° (SSW) 2,885 6.2 -16.0°
